Wind_Speed
1 2 1 1 1 1 1 0 1 1 1 0 0 0 0 0 0 0 1 1 1 1 1 2 2 2 2 3 3 3 3 3 3 3 4 4 4 4 4 4 4 5 5
1 1 1 1 1 1 1 2 1 1 1 0 0 1 1 1 1 1 1 1 1 2 2 3 3 3 3 3 4 4 4 4 4 4 4 5 5 5 5 6 6 6 6
1 1 1 2 2 2 2 2 1 1 1 2 2 2 2 2 2 2 2 2 3 3 3 4 4 4 4 4 5 5 5 5 5 6 6 6 6 6 6 7 8 8 8
1 1 1 2 2 2 2 2 2 3 3 3 3 3 3 3 3 3 4 4 5 5 5 5 5 5 6 6 6 6 7 7 7 7 7 7 7 7 7 8 9 10 10
1 1 2 2 2 3 3 3 3 3 4 4 4 4 4 5 5 4 5 5 6 6 6 7 6 6 7 7 8 8 8 8 8 8 8 8 9 9 9 10 11 11 12
2 2 2 2 3 4 4 4 4 4 4 4 5 5 6 6 6 6 6 6 7 7 8 8 8 8 9 9 9 10 10 10 10 10 10 10 11 11 11 11 12 13 13
3 2 3 3 4 4 5 5 5 5 5 6 6 7 7 7 7 7 7 8 8 8 8 9 9 10 11 11 11 11 11 11 11 11 11 11 12 12 12 13 13 14 14
3 3 3 4 4 5 5 6 7 7 7 7 8 8 8 9 9 9 9 9 10 10 10 10 11 12 13 13 13 12 12 12 13 13 13 13 13 13 13 14 15 15 15
4 4 4 4 5 5 6 6 7 8 8 8 9 9 8 9 9 10 10 11 11 11 12 12 13 13 14 14 14 15 15 15 15 15 15 16 16 16 16 17 17 17 17
5 5 5 5 6 6 6 6 7 8 8 9 9 10 10 10 10 11 11 12 13 13 14 14 14 15 15 15 15 16 16 17 17 17 18 18 18 18 19 19 19 19 20
7 7 6 6 6 6 7 7 7 8 8 9 9 9 10 10 11 11 12 12 13 14 14 15 15 15 16 16 17 17 18 18 18 19 19 19 20 20 21 21 21 21 22
8 8 7 7 7 7 7 8 8 8 8 9 9 10 10 11 12 12 13 14 14 15 16 16 16 17 18 17 18 19 19 20 20 20 20 21 22 22 22 23 23 23 24
9 9 8 8 8 8 8 9 9 10 10 10 11 11 12 12 13 13 14 15 15 16 16 16 18 18 19 19 19 20 21 21 22 22 23 23 24 24 24 24 24 24 25
11 11 10 9 9 9 9 10 10 10 11 11 11 12 12 13 14 14 15 16 16 17 18 19 19 19 20 20 20 21 21 22 23 23 23 24 25 25 25 26 26 26 26
12 12 11 9 9 9 10 10 11 11 11 12 13 13 13 14 15 16 16 17 17 17 18 20 20 21 21 21 21 21 22 23 23 24 24 25 25 26 26 26 27 28 28
14 12 12 12 11 11 10 11 11 12 12 13 13 14 14 15 16 17 17 18 18 19 19 20 21 22 22 22 23 23 23 23 23 24 25 25 26 26 27 28 28 29 29
14 14 14 14 12 11 11 11 12 12 12 13 13 14 15 16 17 17 18 18 19 19 20 21 22 22 23 24 24 24 24 24 24 25 25 26 26 27 28 29 30 31 31
15 15 14 14 13 13 12 13 13 13 13 14 15 15 16 16 17 18 19 19 19 20 21 21 22 23 24 24 25 25 24 25 26 27 27 27 28 29 29 30 31 31 32
16 15 15 16 15 14 14 14 13 14 14 15 16 17 17 17 18 19 19 20 20 20 21 23 23 24 24 25 25 25 25 26 26 27 28 28 29 30 30 31 31 31 32
16 16 16 17 17 16 15 15 15 15 16 17 17 17 17 18 19 20 20 21 21 22 22 23 23 24 25 26 26 26 27 27 27 28 28 28 29 31 31 32 32 32 32
16 17 17 18 17 16 16 16 16 17 18 18 18 18 18 19 20 20 21 22 23 23 23 24 24 25 25 25 26 27 27 27 28 28 28 29 30 31 32 32 33 33 33
18 18 19 19 19 18 17 18 18 18 18 19 19 19 20 21 21 21 22 23 23 24 24 24 25 25 25 26 26 27 28 28 28 29 29 29 30 30 31 31 32 32 33
19 19 20 20 20 19 19 19 19 19 20 20 20 20 21 22 22 23 23 24 24 24 25 25 26 26 26 26 27 27 28 29 30 30 30 30 30 30 31 31 32 32 32
20 20 20 21 21 21 20 20 20 20 21 22 22 22 22 23 24 24 24 24 25 25 26 26 27 27 27 27 28 28 29 30 30 30 30 31 31 31 31 32 32 32 32
21 21 21 21 22 22 21 21 21 22 22 23 23 23 24 24 24 24 25 26 26 27 27 27 28 28 29 29 29 30 30 31 31 31 31 31 32 32 32 31 31 32 32
23 23 23 23 23 23 22 23 23 23 23 24 24 24 24 25 25 26 27 28 28 28 28 28 28 29 30 30 30 31 31 31 30 30 31 31 31 31 31 31 30 31 31
Wind_Direction
199 183 157 173 174 205 242 271 204 137 127 81 123 176 139 37 38 99 79 51 25 9 348 338 331 324 320 314 304 305 311 308 309 308 295 284 276 272 268 265 257 254 255
212 205 230 254 271 298 274 274 231 178 198 233 260 284 286 298 312 284 285 313 320 311 303 312 315 310 313 309 304 300 303 305 305 306 307 293 278 273 271 266 263 264 265
228 247 263 271 285 301 296 276 250 248 258 274 282 287 282 280 286 288 294 297 296 297 296 294 296 297 297 299 296 295 296 299 301 301 300 299 297 283 273 269 269 268 269
234 271 281 271 271 287 287 271 259 258 271 285 289 290 287 280 274 277 285 291 291 290 292 291 290 292 291 290 289 290 292 293 294 294 295 291 289 283 277 272 271 271 271
293 289 293 266 269 282 281 271 268 269 272 276 280 284 288 289 280 274 281 289 294 289 288 288 288 294 292 290 289 289 289 291 291 290 289 287 285 283 280 277 275 273 271
330 309 307 292 280 281 279 274 272 278 276 274 272 274 279 286 285 283 284 285 291 292 291 287 287 289 289 289 288 288 287 289 289 286 285 284 283 282 279 279 277 276 273
343 327 307 304 299 296 289 284 282 280 280 282 280 276 276 281 284 285 285 285 290 291 291 290 291 288 286 285 284 284 286 288 289 287 286 286 287 283 280 281 279 276 276
349 331 320 305 306 306 302 295 289 288 284 284 285 283 279 282 283 280 280 284 290 293 294 292 290 289 289 286 284 283 284 286 286 286 285 286 286 286 282 282 281 279 278
1 336 324 315 309 310 312 308 298 294 291 289 289 289 287 287 284 282 283 286 290 293 292 291 292 291 290 290 286 284 283 284 285 285 285 285 284 284 283 281 280 279 279
353 340 323 314 310 309 313 313 306 301 299 296 294 293 291 292 290 286 288 292 294 293 293 292 292 294 293 293 292 288 287 286 284 283 283 284 285 282 282 281 280 278 278
351 342 332 321 310 307 309 310 310 306 307 306 303 299 298 296 295 296 297 296 295 295 294 295 297 296 295 292 290 288 286 286 288 286 282 282 283 281 280 280 281 281 279
350 341 329 323 316 308 306 307 306 307 306 304 304 303 299 298 299 299 296 295 296 297 296 297 296 296 295 293 291 288 286 286 287 285 283 282 283 282 282 280 280 280 278
346 338 327 318 314 308 303 301 301 304 302 301 302 301 299 300 301 301 301 300 298 298 296 296 295 295 294 293 291 290 287 286 287 286 286 286 284 282 282 281 282 282 281
347 338 329 318 311 309 304 301 300 301 301 300 300 302 301 301 302 302 301 302 299 296 296 296 297 298 297 293 290 288 288 288 287 287 286 285 286 283 283 283 284 282 281
346 341 333 326 317 311 307 305 302 303 301 299 299 300 301 301 300 302 302 302 299 296 296 296 297 297 296 294 293 291 291 290 287 287 288 288 286 285 285 284 284 283 283
344 338 335 330 318 312 308 306 304 304 301 301 300 299 300 301 301 301 302 301 300 298 297 295 295 297 297 294 293 293 293 291 290 291 290 288 287 287 287 285 285 286 285
340 336 335 333 323 317 310 306 305 305 303 303 302 301 302 302 302 301 302 303 302 300 300 299 297 296 296 295 295 295 294 292 291 291 290 289 289 289 291 290 288 286 286
340 338 334 334 326 319 314 309 307 306 303 302 304 306 306 305 303 302 303 303 303 302 302 303 301 300 300 298 296 295 295 294 292 291 290 289 289 289 292 292 292 291 289
337 337 334 331 327 321 317 312 309 308 306 305 304 305 306 306 304 304 304 304 305 305 305 305 304 304 304 302 300 297 296 296 295 294 293 292 292 292 293 293 293 293 291
332 332 331 330 327 323 318 315 312 309 307 307 307 307 307 306 304 304 305 305 305 306 306 307 307 305 302 301 300 298 298 298 296 294 293 293 292 293 294 294 294 292 291
327 328 329 329 327 322 319 316 312 309 308 308 308 309 309 309 308 306 306 305 306 307 308 307 307 305 303 303 302 301 301 301 299 297 294 294 294 294 294 294 294 293 292
324 325 326 326 326 321 316 314 311 311 308 307 307 308 310 311 310 308 307 308 309 309 308 308 307 307 305 304 304 304 303 303 301 300 300 300 299 298 297 295 295 294 293
324 323 323 324 323 321 316 312 309 310 311 309 308 309 310 311 310 309 308 309 310 310 309 309 309 309 307 306 305 305 304 304 303 302 302 302 301 300 299 297 296 295 296
322 321 321 321 321 319 316 313 310 310 310 309 308 308 308 309 310 309 310 311 311 312 311 310 308 307 307 307 306 306 305 304 303 302 302 302 301 301 300 300 300 298 298
321 319 319 318 318 317 315 312 310 309 310 309 307 307 307 308 309 309 309 309 310 310 309 308 307 306 306 306 305 305 305 304 302 301 301 302 302 302 301 301 301 301 300
318 318 316 315 315 314 314 313 311 310 309 308 307 307 307 307 308 309 308 309 309 309 309 307 307 306 306 305 304 304 304 304 302 301 301 302 302 302 302 301 302 303 303
Height
5898 5899 5899 5899 5900 5900 5900 5901 5901 5901 5901 5902 5902 5902 5902 5903 5903 5903 5903 5903 5903 5903 5903 5903 5903 5903 5903 5903 5903 5903 5903 5902 5902 5902 5901 5901 5901 5901 5901 5901 5901 5901 5901
5898 5899 5899 5900 5900 5900 5901 5901 5901 5901 5902 5902 5902 5902 5902 5903 5903 5903 5903 5903 5903 5903 5903 5903 5903 5903 5902 5902 5902 5902 5902 5902 5901 5901 5900 5900 5900 5900 5900 5900 5900 5900 5900
5899 5899 5899 5900 5900 5900 5900 5901 5901 5901 5902 5902 5902 5902 5902 5902 5903 5903 5903 5903 5903 5903 5903 5902 5902 5902 5902 5902 5902 5901 5901 5901 5900 5900 5899 5899 5899 5898 5898 5898 5898 5898 5898
5899 5899 5900 5900 5900 5900 5900 5901 5901 5901 5901 5901 5902 5902 5902 5902 5902 5902 5902 5902 5902 5902 5902 5901 5901 5901 5901 5901 5900 5900 5900 5899 5899 5898 5898 5898 5897 5897 5897 5896 5896 5896 5896
5899 5899 5900 5900 5900 5900 5900 5900 5900 5901 5901 5901 5901 5901 5901 5901 5901 5901 5901 5901 5901 5901 5901 5900 5900 5900 5900 5899 5899 5898 5898 5898 5897 5897 5896 5896 5895 5895 5895 5894 5894 5894 5893
5899 5899 5899 5899 5900 5900 5900 5900 5900 5900 5900 5900 5900 5900 5901 5900 5900 5900 5900 5900 5900 5900 5899 5899 5898 5898 5898 5898 5897 5897 5896 5896 5895 5895 5894 5893 5893 5892 5892 5892 5891 5891 5890
5899 5899 5899 5899 5899 5899 5899 5899 5899 5899 5899 5899 5900 5899 5899 5899 5899 5899 5899 5899 5898 5898 5897 5897 5897 5896 5896 5896 5895 5894 5894 5893 5893 5892 5891 5891 5890 5889 5889 5888 5888 5888 5887
5899 5899 5899 5899 5899 5899 5899 5898 5898 5898 5898 5898 5898 5898 5898 5898 5897 5897 5897 5897 5897 5896 5895 5895 5895 5894 5894 5893 5892 5892 5891 5890 5890 5889 5888 5888 5887 5886 5886 5885 5884 5884 5883
5899 5899 5898 5898 5898 5898 5898 5898 5897 5897 5897 5897 5896 5896 5896 5896 5895 5895 5895 5894 5894 5894 5893 5892 5892 5891 5891 5890 5889 5888 5888 5887 5886 5886 5885 5884 5883 5883 5882 5881 5880 5879 5879
5899 5898 5898 5897 5897 5897 5897 5896 5896 5895 5895 5895 5894 5894 5894 5893 5893 5892 5892 5892 5891 5891 5890 5890 5889 5888 5887 5887 5886 5885 5884 5883 5882 5882 5881 5880 5879 5878 5878 5877 5876 5875 5874
5899 5898 5897 5897 5897 5896 5896 5895 5895 5894 5894 5893 5893 5892 5892 5891 5890 5890 5890 5889 5888 5888 5887 5886 5885 5884 5883 5883 5882 5881 5880 5879 5878 5877 5876 5875 5874 5873 5873 5872 5871 5870 5869
5898 5897 5896 5896 5895 5895 5895 5894 5894 5893 5892 5892 5891 5891 5890 5889 5888 5888 5887 5886 5885 5885 5884 5883 5881 5880 5879 5878 5877 5876 5875 5874 5873 5872 5871 5870 5869 5868 5867 5866 5865 5864 5863
5898 5897 5895 5895 5894 5893 5893 5892 5892 5891 5890 5890 5889 5888 5887 5887 5886 5885 5884 5883 5882 5881 5880 5879 5877 5876 5875 5874 5872 5871 5869 5868 5868 5867 5866 5864 5863 5862 5861 5860 5859 5857 5856
5897 5896 5894 5893 5892 5892 5891 5890 5890 5889 5888 5888 5887 5886 5885 5884 5883 5882 5881 5880 5878 5878 5876 5875 5873 5871 5870 5868 5866 5865 5864 5863 5862 5860 5859 5858 5857 5856 5855 5853 5852 5851 5849
5897 5895 5893 5892 5891 5890 5889 5888 5887 5887 5886 5885 5884 5884 5882 5881 5880 5879 5878 5876 5875 5874 5872 5871 5869 5867 5865 5863 5861 5860 5859 5857 5856 5854 5853 5852 5850 5849 5848 5846 5845 5843 5842
5896 5894 5893 5891 5889 5888 5887 5886 5885 5885 5884 5883 5882 5881 5879 5878 5877 5875 5874 5872 5871 5869 5868 5866 5864 5862 5860 5858 5857 5854 5853 5851 5849 5848 5846 5845 5843 5842 5840 5839 5837 5836 5834
5895 5893 5891 5889 5887 5886 5885 5884 5883 5882 5881 5880 5879 5877 5876 5875 5873 5872 5870 5868 5866 5865 5863 5861 5859 5857 5855 5853 5851 5849 5847 5845 5843 5841 5840 5838 5836 5835 5833 5831 5829 5828 5826
5894 5892 5890 5888 5885 5884 5883 5881 5880 5879 5878 5877 5875 5874 5872 5871 5869 5868 5866 5864 5862 5860 5858 5856 5854 5851 5849 5847 5844 5842 5841 5839 5837 5834 5833 5831 5829 5827 5825 5823 5821 5819 5817
5892 5890 5888 5886 5884 5882 5880 5879 5877 5876 5875 5874 5872 5871 5869 5867 5865 5864 5862 5860 5857 5855 5853 5851 5849 5846 5843 5841 5838 5836 5834 5832 5830 5828 5825 5823 5821 5819 5817 5815 5813 5810 5808
5890 5888 5886 5884 5882 5880 5878 5876 5875 5873 5872 5870 5869 5867 5865 5863 5861 5859 5857 5855 5853 5851 5848 5846 5843 5840 5837 5834 5832 5829 5827 5825 5823 5820 5818 5816 5813 5811 5809 5807 5804 5802 5799
5888 5886 5884 5882 5880 5877 5875 5874 5872 5870 5869 5867 5865 5863 5861 5859 5857 5855 5853 5850 5848 5845 5843 5840 5837 5835 5831 5828 5826 5823 5820 5817 5815 5813 5810 5808 5806 5803 5801 5798 5795 5792 5790
5886 5884 5881 5879 5877 5874 5872 5871 5869 5867 5865 5863 5861 5859 5857 5855 5853 5850 5848 5845 5842 5840 5837 5834 5831 5828 5825 5822 5819 5816 5814 5811 5808 5806 5803 5800 5797 5795 5792 5789 5786 5783 5780
5883 5881 5878 5876 5874 5871 5869 5867 5865 5863 5861 5859 5857 5855 5853 5850 5848 5845 5842 5840 5837 5834 5831 5828 5825 5822 5819 5816 5813 5810 5807 5804 5801 5798 5795 5792 5789 5786 5783 5780 5777 5774 5771
5880 5877 5875 5873 5870 5868 5865 5863 5861 5859 5857 5855 5852 5850 5848 5845 5842 5840 5837 5834 5831 5828 5825 5822 5819 5816 5813 5809 5806 5804 5800 5797 5794 5790 5787 5784 5781 5778 5775 5771 5768 5765 5762
5877 5874 5872 5869 5867 5864 5862 5859 5857 5855 5852 5850 5847 5845 5842 5840 5837 5834 5831 5828 5825 5822 5819 5816 5812 5809 5806 5802 5799 5796 5793 5789 5786 5783 5779 5776 5773 5770 5766 5763 5759 5756 5753
5873 5871 5868 5865 5863 5860 5857 5855 5852 5850 5847 5845 5842 5840 5837 5834 5831 5828 5825 5822 5819 5816 5812 5809 5806 5802 5799 5795 5792 5788 5785 5781 5778 5775 5771 5768 5765 5761 5758 5755 5751 5747 5744